Find Starlink 38325

NORAD ID: 100445 Int'l Des: 2026-193 Owner: SPXS Country: US Constellation: starlink operational

Current View

Loading 3D Globe...

About Starlink 38325

Starlink 38325 (NORAD 100445) is a starlink constellation satellite launched Aug 22, 2026 by SPXS of US. with a mass of 575.00 kg.

Upcoming Passes

Passes for default location (London). Set your location on the main map for personalized predictions.

Altitude History

Loading altitude history...

Two-Line Element Set

1 A0445U 26193N 26248.29213238 -.02394608 00000-0 -14196-1 0 9992
2 A0445 70.0000 116.8398 0005254 185.8452 174.2689 15.80984438 3377
Epoch: Sep 5, 2026 • Age: 7 hours

Current Status

Altitude 356.1 km
Apogee / Perigee N/A
Velocity 7.69 km/s
Sub-Earth Point -66.51°S, 155.07°E
Launch Date Aug 22, 2026
Age 14 days
Type internet

Technical Details

Classification Payload
Mass 575.00 kg
Dry Mass 530.00 kg
Total Mass 575.00 kg
Length 0.30 m
Diameter 4.10 m
Span 29.00 m
Shape Box + pan
Manufacturer SPXS
Bus Type Starlink V2MO
Phase Status In Orbit
Owner/State SPXS/US

Most Searched